www.pogodaiklimat.ru

Погода и климат >> Архив погоды >> Россия >> Чечня >> Наурская


ПОГОДА в Наурской

  • Прогноз погоды в Наурской
  • Монитор погоды в Наурской

АРХИВ ПОГОДЫ в Наурской

Время (UTC), дата Ветер
(напр.,м/с)
 
Видим.   Явления Облачность Т
(С)
Тd
(С)
f
(%)
Тe
(С)
Тes
(С)
Комфортность P
(гПа)
Po
(гПа)
Тmin
(С)
Tmax
(С)
R
(мм)
R24
(мм)
S
(см)
21 12.05 СЗ 2 10 км 9/0 600 м
[Ci sp]
+18.0 +15.6 86 +19 +19 1016.7 1007.3
00 13.05 З 2 10 км 9/4 600 м
[Cb cap Ac inh]
+16.8 +14.7 87 +17 +17 1016.7 1007.3
03 13.05 С 2 20 км слаб. ливневой дождь 9/6 600 м
[Cb cap Ac inh]
+16.2 +14.8 91 +16 +16 1017.5 1008.0 +16.2 0.0
06 13.05 З 4 20 км слаб. ливневой дождь 10/5 600 м
[Cb cap Ac inh]
+15.8 +14.9 94 +15 +16 1019.0 1009.5 +15.8
09 13.05 СЗ 2 20 км в посл. час ливневой дождь 10/4 600 м
[Cb cap Ac inh]
+17.2 +14.1 82 +18 +21 1019.0 1009.5
12 13.05 З 2 20 км {ливн. осадки} 10/4 600 м
[Cb cap Ac inh]
+19.8 +14.5 71 +22 +24 комфорт 1018.6 1009.2
15 13.05 ЮЗ 2 20 км 8/8 600 м
[Cb cap Ac inh]
+20.3 +14.7 70 +23 +24 комфорт 1018.2 1008.8 +20.3 2
18 13.05 З 1 10 км 4/0
[Ac und]
+16.1 +13.6 85 +17 +17 1019.2 1009.7
21 13.05 СЗ 1 10 км туман поземный ясно +13.4 +12.1 92 +14 +14 1018.5 1008.8
00 14.05 З 1 10 км туман поземный ясно +12.7 +11.8 94 +13 +13 1018.3 1008.6
03 14.05 З 2 20 км {туман} 8/0
[Ac cast]
+15.6 +13.3 86 +15 +16 1019.0 1009.5 +12.7
06 14.05 З 3 20 км {туман} 3/0
[Ac und]
+20.2 +12.6 62 +22 +30 комфорт 1018.7 1009.3
09 14.05 З 3 20 км 6/3 600 м
[Cu med, cong Ac und Ci sp]
+23.5 +13.0 52 +26 +34 жарко 1017.7 1008.4
12 14.05 З 2 20 км 5/3 600 м
[Cu med, cong Ac und Ci sp]
+25.5 +14.3 50 +28 +35 жарко 1016.7 1007.5
15 14.05 З 1 20 км 8/3 600 м
[Cb cap Ac inh]
+23.5 +12.3 49 +25 +26 комфорт 1016.2 1007.0 +25.5
18 14.05 ЮЗ 1 10 км ясно +16.7 +13.9 84 +18 +18 1017.5 1008.0
21 14.05 З 1 10 км 5/0
[Ac und Ci sp]
+16.5 +12.9 79 +17 +17 1017.5 1008.0
00 15.05 ЮЗ 1 10 км 3/0
[Ac und]
+14.8 +11.8 82 +15 +15 1018.1 1008.5
03 15.05 ЮЗ 1 20 км 3/0
[Ci fib]
+16.4 +13.2 81 +17 +19 1018.0 1008.5 +14.8
06 15.05 З 4 20 км 3/0
[Ci fib]
+23.5 +13.0 52 +26 +33 жарко 1017.6 1008.3
09 15.05 З 6 20 км 3/3 600 м
[Cu med, cong]
+26.3 +14.3 48 +29 +34 жарко 1016.5 1007.3
12 15.05 ЮЗ 2 20 км 3/3 600 м
[Cu med, cong]
+28.2 +15.3 45 +31 +39 душно 1015.7 1006.6
15 15.05 СЗ 3 20 км ясно +27.0 +14.6 47 +30 +31 душно 1015.2 1006.0 +28.2
18 15.05 З 2 10 км 3/0
[Ci fib]
+20.4 +15.7 74 +24 +24 комфорт 1015.9 1006.5
21 15.05 З 1 10 км ясно +16.2 +13.0 81 +17 +17 1015.0 1006.0
00 16.05 З 1 10 км ясно +16.2 +13.7 85 +17 +17 1015.5 1006.0
03 16.05 З 2 20 км ясно +18.8 +15.2 80 +20 +22 1015.0 1005.6 +16.2
06 16.05 З 2 20 км ясно +25.0 +17.5 63 +29 +41 душно 1015.0 1005.8
09 16.05 С 2 20 км 4/3 600 м
[Cu med, cong Ac und]
+27.7 +17.4 53 +32 +44 очень
душно
1014.3 1005.2
12 16.05 СВ 2 20 км 6/3 600 м
[Cu med, cong Ac As]
+30.3 +18.6 50 +35 +41 очень
душно
1013.3 1004.2
15 16.05 В 2 20 км 3/0
[Ac und]
+28.4 +17.2 51 +32 +33 душно 1012.8 1003.7 +30.3
18 16.05 ЮВ 2 10 км ясно +21.4 +14.0 63 +24 +24 комфорт 1014.3 1005.0
21 16.05 В 1 10 км туман поземный ясно +15.4 +14.3 93 +16 +16 1013.8 1004.3
00 17.05 штиль 0 10 км туман поземный ясно +11.8 +11.0 95 +11 +11 1013.8 1004.1
03 17.05 штиль 0 500 м туман ?/? +13.1 +12.5 96 +13 +13 1013.8 1004.1 +11.8
06 17.05 В 3 20 км {туман} ясно +23.6 +15.3 60 +27 +36 жарко 1013.1 1003.9
09 17.05 В 4 50 км ясно +28.6 +15.2 44 +31 +44 жарко 1012.0 1002.9
12 17.05 В 6
{11}
50 км ясно +30.2 +14.9 39 +32 +37 жарко 1011.1 1002.0
15 17.05 В 6
{12}
20 км ясно +27.0 +12.4 40 +28 +29 жарко 1010.7 1001.6 +30.2
18 17.05 В 2 10 км ясно +19.4 +12.1 63 +21 +21 комфорт 1011.7 1002.3
21 17.05 В 1 10 км ясно +15.0 +12.8 87 +15 +15 1011.1 1001.6
00 18.05 штиль 0 10 км ясно +12.4 +10.7 89 +12 +12 1010.6 1001.0
03 18.05 штиль 0 10 км туман поземный ясно +12.6 +11.7 94 +12 +14 1010.7 1001.1 +12.4
06 18.05 ЮВ 1 10 км {туман} 9/0
[Ac As]
+15.0 +13.0 88 +15 +21 1010.9 1001.4
09 18.05 СВ 1 20 км 4/0
[Ci sp]
+22.0 +16.8 72 +26 +46 душно 1010.0 1000.7
12 18.05 В 6 20 км 3/0
[Ci sp]
+28.2 +16.1 48 +31 +36 душно 1007.6 998.5
15 18.05 В 4 20 км 3/0
[Ci sp]
+25.2 +13.9 50 +28 +28 жарко 1007.3 998.2 +28.5
18 18.05 В 2 10 км 8/0
[Ac As]
+19.6 +12.7 64 +22 +22 комфорт 1008.6 999.3
21 18.05 В 1 10 км 8/0
[Ac As]
+16.6 +14.0 85 +17 +17 1008.1 998.6
00 19.05 В 1 10 км 9/0
[Ac As]
+15.4 +13.4 88 +16 +16 1008.2 998.7
03 19.05 В 1 10 км 9/0
[Ac As]
+16.0 +14.2 89 +17 +17 1008.4 998.9 +15.4
06 19.05 СЗ 1 20 км 9/0
[Ac As]
+20.4 +15.5 73 +24 +29 комфорт 1008.9 999.6
09 19.05 ЮВ 3 20 км 3/1 600 м
[Cu hum Ci sp]
+24.8 +16.2 59 +28 +42 жарко 1008.8 999.6
12 19.05 В 2 20 км 4/4 600 м
[Cu hum]
+29.5 +16.2 45 +33 +40 душно 1008.6 999.6
15 19.05 В 2 20 км 9/6 600 м
[Cb cap Ac inh]
+26.0 +14.7 50 +29 +29 душно 1009.8 1000.7 +29.5
18 19.05 ЮВ 1 10 км 9/8 600 м
[Cb cap Ac inh]
+20.8 +16.7 77 +25 +25 комфорт 1011.5 1002.2

 

Местоположение метеостанции Наурская (Чечня, Россия): широта 43.65 долгота 45.32 высота над уровнем моря 80 м.

В архиве по умолчанию представлена погода в Наурской за последнюю неделю. Архивные данные за месяц целиком и за предыдущие месяцы, начиная с января 2011 года, Вы можете получить, выбрав интересующий диапазон дат из раскрывающегося списка и нажав кнопку "Ввод!".


*Определитесь, кто Вы:
робот инопланетянин человек

Внимание! Время в таблицах - всемирное. Для получения местного времени необходимо прибавить поправку, которая равна 3 ч.

Смотрите также архив погоды в соседних городах и на ближайших метеорологических станциях:

Погода в Моздоке (Северная Осетия, Россия) (53 км)
Погода в Грозном (Чечня, Россия) (55 км)
Погода в Рощино (Ставропольский край, Россия) (56 км)
Погода в Назрани (Ингушетия, Россия) (67 км)
Погода в Терекли-Мектебе (Дагестан, Россия) (70 км)
Погода в Гудермесе (Чечня, Россия) (73 км)
Погода в Шелковской (Чечня, Россия) (86 км)
Погода в Владикавказе (Северная Осетия, Россия) (86 км)
Погода в Шатое (Чечня, Россия) (90 км)
Погода в Прохладный (Кабардино-Балкария, Россия) (103 км)

Пояснения к столбцам:

Ветер - указаны скорость ветра в м/с - средняя за 10 мин, порывы в срок и между сроками (в фигурных скобках) и направление, откуда дует ветер: С - северный, СВ - северо-восточный, В - восточный, ЮВ - юго-восточный, Ю - южный, ЮЗ - юго-западный, З - западный, СЗ - северо-западный.
Видимость - горизонтальная дальность видимости в метрах или километрах. При видимости от 1 до 10 км при отсутствии осадков обычно наблюдается дымка, при ухудшении видимости до 1 км и менее - туман. В сухую погоду видимость может ухудшаться дымом, пылью или мглою.
Явления - указаны атмосферные явления, наблюдавшиеся в срок или в последний час перед сроком; фигурными скобками обозначены явления, наблюдавшиеся между сроками (за 1-3 часа до срока); квадратными скобками обозначены град или гололедные отложения с указанием их диаметра в мм.
Облачность - указаны через наклонную черту общая и нижняя облачность в баллах и высота нижней границы облаков в метрах; квадратными скобками обозначены формы облаков: Ci - перистые, Cs - перисто-слоистые, Cc - перисто-кучевые, Ac - высококучевые, As - высокослоистые, Sc - слоисто-кучевые, Ns - слоисто-дождевые, Cu - кучевые, Cb - кучево-дождевые. Подробнее классификацию облаков см. в Атласе облаков (PDF).
T - Температура воздуха - температура, измеренная на высоте 2 м над землей.
Td - Температура точки росы - температура, при понижении до которой содержащийся в воздухе водяной пар достигнет насыщения.
f - Относительная влажность воздуха - влажноcть воздуха, измеренная на высоте 2 м над землей.
Te - Эффективная температура - температура, которую ощущает одетый по сезону человек в тени. Характеристика душности погоды. При расчете учитывается влияние влажности воздуха и скорости ветра на теплоощущения человека.
Tes - Эффективная температура на солнце - температура, которую ощущает человек, с поправкой на солнечный нагрев. Характеристика знойности погоды. Зависит от высоты солнца над горизонтом, облачности и скорости ветра. Ночью, в пасмурную погоду, а также при ветре 12 м/с и более поправка равна нулю.
P - Атмосферное давление - приведенное к уровню моря атмосферное давление.
Po - Атмосферное давление - измеренное на уровне метеостанции атмосферное давление.
Tmin - Минимальная температура - минимум температуры воздуха на высоте 2 м над землей.
Tmax - Максимальная температура - максимум температуры воздуха на высоте 2 м над землей.
R - Количество осадков - Количество выпавших осадков за период времени, мм. При наведении курсора мыши на число - период времени, за который выпало указанное количество осадков.
R24 - Количество осадков - Количество выпавших осадков за 24 часа, мм.
S - Снежный покров - Высота снежного покрова, см. При наведении курсора мыши на число - состояние снежного покрова и степень покрытия местности в баллах.